Theta_e
344 344 344 341 342 342 339 336 336 337 336 334 331 330 327 326 323 321 320 320 318 318 318 317 316 320 318 320 320 322 319 318 311 316 321 321 321 321 322 322 324 324 323
338 338 338 335 332 329 328 333 334 334 335 332 331 329 327 327 325 325 323 323 323 321 323 323 321 323 324 324 321 322 322 322 317 317 323 323 324 325 325 324 321 320 321
337 338 336 334 333 331 330 330 332 331 331 330 329 327 326 325 327 327 326 325 325 324 323 321 320 322 322 324 324 321 320 322 321 317 316 321 322 319 319 321 320 321 318
336 332 332 333 331 329 329 327 328 326 326 325 325 324 325 325 324 324 323 323 322 321 318 316 314 313 313 314 315 316 316 314 315 313 311 312 313 316 314 311 311 314 314
332 332 330 331 331 329 328 327 329 327 325 322 320 317 316 315 314 320 319 319 319 318 317 316 315 313 311 311 310 312 314 311 310 308 308 308 310 310 310 311 309 310 314
332 330 329 329 328 328 328 326 325 323 322 319 316 314 312 310 306 309 314 315 316 315 315 316 314 313 311 310 310 308 311 309 308 307 307 307 310 310 308 308 307 306 304
327 326 326 326 323 322 320 319 320 320 320 319 315 313 311 311 304 304 310 314 314 314 314 313 310 308 311 313 309 309 309 308 309 310 308 308 308 310 309 308 308 307 306
324 320 318 317 317 318 320 320 319 320 319 317 314 313 311 308 303 302 304 314 312 311 312 313 311 308 306 307 312 312 312 312 312 310 312 311 312 312 311 311 310 309 309
321 324 322 323 321 321 321 322 321 319 317 316 315 314 312 311 301 300 306 314 312 312 310 309 309 308 300 301 311 309 309 310 311 311 308 305 303 303 305 308 307 305 304
318 320 321 321 321 321 322 321 320 318 315 313 313 314 309 311 299 300 303 312 312 311 312 308 302 303 299 299 308 306 306 308 309 310 312 312 311 311 307 309 309 305 303
320 322 322 322 323 323 322 321 319 316 315 314 313 314 313 310 307 299 299 311 310 311 310 309 308 300 299 299 298 308 305 303 307 309 310 309 311 311 310 310 311 308 305
321 320 320 321 319 320 320 319 318 317 314 313 313 313 313 315 303 300 300 300 303 311 309 309 308 300 301 301 301 299 298 301 309 308 307 308 307 308 309 312 313 309 309
317 316 319 319 319 319 318 317 314 316 312 311 311 312 311 313 311 302 303 302 301 307 310 303 301 299 298 301 300 300 300 309 308 307 306 308 309 312 312 312 312 310 311
321 320 319 318 318 319 317 315 315 313 312 311 311 310 310 309 310 311 310 310 303 306 307 308 307 303 300 306 306 308 308 308 308 308 307 307 311 309 309 311 309 306 308
321 320 318 317 319 316 316 312 313 310 306 310 310 311 307 310 307 299 301 307 306 304 302 310 307 307 307 307 307 308 307 308 307 308 307 308 307 308 307 310 311 306 307
321 319 314 315 315 314 315 312 294 297 296 295 295 299 307 297 295 296 295 296 297 295 306 306 305 305 305 305 305 305 306 306 308 308 308 307 306 307 306 309 310 307 304
322 318 312 310 316 312 312 311 309 301 296 295 295 295 295 292 295 296 297 295 295 297 306 305 303 304 305 305 305 305 305 307 310 308 308 308 307 307 308 307 306 306 304
320 305 315 315 314 312 313 312 312 311 305 306 297 299 295 295 295 296 297 296 302 304 304 304 303 304 305 305 305 304 305 307 307 308 307 308 305 304 305 307 306 305 305
317 314 315 315 312 311 313 313 310 311 310 308 309 300 299 296 296 295 297 305 303 303 304 303 305 305 305 305 305 305 306 307 307 307 308 307 307 304 304 306 307 298 300
315 306 307 314 311 312 311 309 309 311 311 309 308 307 307 305 307 307 306 307 303 304 303 304 305 306 305 305 305 305 305 305 306 306 306 307 308 307 307 306 309 306 304
314 312 302 312 311 311 312 311 310 310 309 308 306 300 287 303 306 305 305 305 304 304 305 305 306 306 306 305 304 304 304 305 305 306 306 307 308 307 309 309 309 307 306
313 313 313 313 314 312 311 311 310 307 306 306 306 303 289 305 306 306 305 305 306 308 308 307 306 306 306 305 304 305 304 304 304 305 305 306 307 308 308 308 308 308 306
314 315 313 312 310 301 307 308 306 306 305 306 306 306 306 306 306 306 306 307 307 307 307 307 306 306 307 307 306 305 303 301 299 300 302 304 306 308 308 309 309 308 307
312 312 310 309 310 309 308 306 302 296 303 305 306 306 306 307 307 306 307 307 307 307 307 307 306 306 306 306 306 305 301 296 297 301 301 304 306 306 309 309 310 309 308
312 311 310 309 307 309 306 307 306 306 305 305 305 306 307 307 306 306 308 308 307 307 306 306 306 306 305 305 303 300 291 285 291 287 300 305 307 307 307 307 308 308 308
313 312 312 311 310 309 309 308 307 307 306 306 307 307 307 307 306 307 307 306 306 306 305 305 304 303 303 301 297 288 285 285 289 284 291 300 304 306 307 305 305 304 306
Wind_Speed
11 10 11 11 11 11 11 11 10 9 10 12 13 13 14 13 11 9 8 7 8 7 4 5 4 2 3 2 1 1 2 2 2 1 4 3 5 6 6 9 8 6 7
10 11 10 13 12 11 9 5 9 11 11 12 12 12 13 11 9 7 6 7 7 5 5 4 4 3 2 3 2 2 2 2 3 5 2 4 6 5 6 3 5 7 6
8 11 11 11 12 12 13 10 11 12 12 13 12 11 11 9 10 8 9 9 9 11 13 11 12 13 11 8 6 7 6 4 3 6 5 2 2 5 4 3 5 5 6
12 11 10 9 10 13 12 12 11 12 12 12 11 11 10 10 10 9 10 9 10 12 12 12 12 12 12 12 10 10 9 9 5 5 4 3 4 2 4 6 7 6 6
10 9 9 9 10 11 12 11 11 10 10 12 12 12 12 11 11 10 10 10 10 9 9 9 10 10 12 12 9 9 11 10 9 9 8 8 7 7 9 8 6 6 6
10 10 8 9 11 10 11 12 12 12 12 11 12 12 13 11 13 15 11 10 10 10 9 9 11 11 5 5 7 8 8 9 10 8 8 10 9 10 10 9 9 9 10
11 8 9 10 12 11 10 9 9 8 8 10 12 12 13 12 14 15 11 11 11 11 11 11 11 10 15 13 5 4 4 5 6 8 9 9 10 10 10 10 10 10 11
11 11 8 8 7 6 7 6 5 7 9 9 11 11 10 9 10 11 13 11 10 11 10 11 11 11 13 14 11 9 9 6 8 8 8 8 7 8 9 9 11 7 9
6 9 7 5 5 4 8 9 9 8 8 9 9 10 10 9 12 12 13 7 7 9 9 10 11 11 9 13 11 12 11 10 7 5 8 9 11 8 10 7 7 10 10
5 5 6 2 4 7 9 8 7 8 8 8 9 8 9 8 10 13 13 5 5 4 11 10 11 8 7 10 10 11 9 9 11 11 6 7 5 7 4 7 8 8 8
2 6 5 5 4 9 7 7 7 7 7 7 7 6 7 5 5 8 12 8 9 8 8 8 9 5 4 9 7 8 8 9 12 8 5 8 8 8 8 8 9 7 8
4 5 8 8 8 8 7 6 6 6 6 4 3 5 6 6 5 5 5 3 6 7 7 8 6 6 7 7 10 8 9 11 6 7 8 8 9 7 9 8 9 7 7
2 3 3 6 7 5 6 4 6 2 3 1 1 2 3 9 4 5 4 3 5 7 7 4 8 10 13 10 13 12 8 7 6 7 9 9 7 10 8 7 6 8 8
5 5 5 6 4 2 4 4 2 4 6 3 6 8 8 6 5 6 5 2 4 5 8 4 7 10 13 8 6 6 5 6 7 7 9 7 10 10 8 7 7 8 7
6 3 4 4 2 4 7 7 6 9 8 7 7 6 5 3 7 5 5 7 7 7 10 5 5 7 8 7 6 4 6 6 8 6 6 10 9 10 10 8 6 7 8
5 5 3 1 3 5 4 7 11 9 9 9 9 9 5 9 5 3 2 4 7 9 6 4 5 7 8 8 7 7 8 7 8 7 8 8 9 10 10 9 7 7 8
5 8 4 5 1 5 5 4 4 5 8 8 7 8 7 4 7 3 2 4 10 8 4 6 5 6 7 6 7 7 8 8 10 8 8 9 10 9 9 9 9 9 9
8 5 3 1 1 5 2 2 5 4 5 4 5 5 6 2 3 2 3 4 5 3 6 5 5 6 6 6 7 7 7 7 7 7 6 6 6 10 9 10 8 9 7
8 5 3 4 3 5 5 4 1 2 5 7 6 6 7 7 4 7 5 4 5 5 5 4 4 5 5 5 6 7 7 6 7 7 7 8 7 6 9 10 7 6 8
8 7 3 7 4 5 1 4 3 2 2 4 5 8 5 5 7 7 4 1 1 2 4 5 4 5 5 7 7 7 7 6 6 8 9 8 5 6 8 9 7 8 8
5 5 4 1 3 7 5 5 4 2 3 4 8 6 4 7 5 5 5 5 5 5 3 4 4 5 7 6 6 6 6 8 8 9 8 8 9 8 7 8 9 6 6
2 5 5 8 1 3 3 2 1 3 3 3 5 6 7 5 4 3 4 4 3 2 2 5 5 5 5 6 7 7 8 9 10 10 10 11 8 8 7 4 8 6 5
2 1 2 3 5 3 5 2 3 3 4 3 3 4 3 4 4 4 4 4 3 4 5 5 6 7 7 6 5 6 7 9 9 8 9 10 10 10 8 7 7 6 7
5 4 4 5 4 3 3 4 4 2 3 4 3 4 4 4 4 4 3 3 4 4 4 4 5 7 6 7 7 8 10 9 8 9 12 10 10 9 9 6 8 7 3
7 5 5 5 6 3 3 3 3 3 3 3 3 2 2 2 3 4 3 3 3 4 4 4 5 6 7 8 11 12 9 6 9 8 9 10 11 12 10 6 9 6 8
4 5 3 4 4 4 3 4 4 3 3 3 2 2 2 2 3 2 2 3 4 3 3 4 5 5 8 10 10 8 7 8 10 9 9 9 10 7 9 11 8 7 9
Wind_Direction
59 59 55 51 53 54 60 63 71 77 72 77 81 85 81 79 73 72 73 74 78 82 73 85 75 39 42 17 350 34 68 33 46 219 224 190 199 218 225 223 225 227 240
69 68 72 73 67 65 52 61 80 80 88 86 82 82 80 80 91 95 109 109 107 119 136 90 93 68 44 26 353 353 1 347 293 284 261 191 232 228 238 292 291 290 306
58 78 73 88 95 88 77 59 69 71 67 67 76 74 73 62 69 53 66 61 53 48 44 40 28 25 28 14 21 16 16 4 7 345 21 66 1 31 329 275 333 324 314
72 75 81 83 90 93 95 95 92 89 87 83 78 68 66 59 55 50 51 55 53 71 62 50 46 39 29 7 42 8 6 336 356 320 320 299 288 324 335 299 291 285 291
86 86 79 76 72 78 80 81 71 67 68 74 72 64 61 57 34 46 56 49 49 67 81 81 59 57 61 51 25 22 7 1 360 346 345 343 9 351 338 350 341 298 314
94 100 102 101 98 97 84 77 72 71 69 75 72 69 67 63 20 23 42 56 52 45 39 57 87 37 77 93 86 59 48 31 23 351 352 357 356 344 345 338 328 322 321
81 76 68 76 83 84 85 89 79 74 70 73 75 80 76 68 15 13 9 56 51 55 50 37 43 39 12 8 162 174 155 110 65 333 356 348 332 340 331 317 317 317 305
85 88 85 95 99 100 89 86 79 81 83 85 91 88 81 61 21 9 337 67 76 54 37 52 53 42 18 355 331 16 17 23 7 7 355 348 340 334 330 319 314 335 299
93 96 87 95 114 143 108 97 93 92 94 93 89 86 77 43 11 10 353 91 95 109 86 62 47 44 5 347 0 14 3 14 19 225 262 273 281 270 275 309 324 326 313
80 85 91 93 203 92 87 90 95 96 91 98 95 94 80 63 22 4 7 17 65 98 137 117 85 47 7 356 353 6 357 4 333 327 352 356 13 23 152 351 336 335 330
118 137 151 164 102 92 101 98 87 81 93 94 90 88 79 41 72 30 13 11 7 350 31 33 56 25 335 309 307 7 339 316 309 303 356 15 355 11 350 355 337 316 298
56 76 81 63 36 77 94 98 100 117 108 113 139 180 125 152 155 115 78 45 344 338 11 34 24 285 274 267 293 329 312 312 0 353 17 359 4 354 346 342 336 328 308
128 140 133 65 79 112 104 125 139 177 136 110 81 89 79 61 121 142 159 229 263 317 356 355 281 276 275 268 236 275 325 349 9 352 351 10 2 340 334 338 347 331 325
156 134 99 79 41 52 180 161 59 30 23 356 15 29 73 69 28 6 20 255 278 288 289 249 283 301 273 283 324 65 13 332 1 351 352 356 349 357 352 357 346 329 334
134 144 119 116 154 130 70 32 45 50 37 2 17 17 360 40 51 23 7 349 348 347 321 352 7 345 347 19 25 35 10 353 5 354 358 345 356 349 352 348 348 337 5
186 194 127 81 97 51 76 116 52 67 85 80 65 39 35 67 33 20 24 333 296 301 304 33 12 347 343 11 0 12 7 337 358 4 352 355 349 352 346 346 356 6 1
149 139 133 243 52 142 103 134 190 97 64 68 88 89 72 11 6 355 274 308 282 272 272 36 19 342 337 4 351 10 5 351 331 354 358 352 2 349 344 354 346 19 359
110 98 190 103 53 41 295 341 52 127 175 163 206 241 121 85 359 325 296 294 285 321 33 14 6 316 332 356 357 14 358 333 348 355 349 354 11 349 351 351 346 8 9
145 183 99 84 143 211 262 45 117 213 139 186 166 204 184 223 234 274 264 7 6 5 6 346 324 309 347 352 17 10 342 342 340 343 4 7 344 355 350 344 349 19 27
123 99 132 228 74 59 274 223 214 273 340 36 20 18 347 230 196 195 125 111 304 337 320 337 339 305 360 22 7 356 350 339 354 360 347 353 348 347 337 338 350 17 30
127 145 348 36 181 213 236 35 33 7 65 40 74 38 316 302 28 36 22 27 10 22 21 304 313 17 27 21 354 13 344 356 360 353 351 341 335 339 12 345 322 8 29
213 145 214 218 124 106 68 90 68 67 47 45 118 138 235 268 56 62 68 65 66 74 21 345 356 35 20 16 358 10 7 6 359 351 346 343 345 340 347 336 326 5 8
95 72 148 99 72 98 201 121 94 86 80 61 51 53 61 46 55 55 59 49 37 28 27 17 349 14 25 6 1 19 12 6 342 339 330 332 333 346 336 327 337 340 341
139 176 154 156 161 171 137 124 109 36 358 89 71 59 49 42 53 91 37 27 21 36 29 13 24 24 8 345 10 3 36 358 325 325 334 318 326 335 332 350 357 348 357
158 167 168 145 193 168 153 197 118 104 101 90 87 77 94 58 60 48 32 29 37 12 38 11 33 8 14 17 22 8 9 329 319 317 307 314 316 340 342 356 3 359 19
160 167 188 184 182 201 186 180 158 170 142 139 146 103 56 30 58 39 31 48 21 39 11 39 35 16 19 38 23 357 332 326 325 314 309 299 307 345 354 339 350 9 5